Flag for Netherlands Weather past 2 weeks in Amsterdam, Netherlands

46 °F

Sprinkles. Scattered clouds.

Feels Like: 40 °F
Forecast: 41 / 48 °F
Wind: 14 mph from Northwest

Location: Amsterdam Schiphol Airport

Current Time: Nov 25, 2015 at 4:01:44 PM

Latest Report: Nov 25, 2015 at 3:25 PM

Visibility: N/A

Pressure: 29.68 "Hg

Humidity: 76%

Dew point: 39 °F

Location of AmsterdamLocation

Historic Weather in Amsterdam — Graph


Amsterdam temperature yesterday

Maximum temperature yesterday: 45 °F (at 9:55 PM)
Minimum temperature yesterday: 39 °F (at 12:55 AM)
Average temperature yesterday: 41 °F

Past Weeks' High & Low Weather Summary

High59 °F (Nov 10, 2:25 PM)100% (Nov 10, 6:55 PM)30.24 "Hg (Nov 10, 6:55 PM)
Low30 °F (Nov 23, 5:25 AM)59% (Nov 13, 1:25 PM)29.30 "Hg (Nov 21, 6:55 AM)
Average50 °F84%29.87 "Hg
* Reported Nov 10 2:25 PM — Nov 25 2:55 PM, Amsterdam, Weather by CustomWeather, © 2015

Note: Actual official high and low records may vary slightly from our data, if they occured in-between our weather recording intervals... More about our weather records


Amsterdam weather history for previous 24 hours

Time TempWeatherWind HumidityBarometerVisibility
2:55 PM
Wed, Nov 25
45 °FSprinkles. Scattered clouds.9 mph87%29.68 "Hg5 mi
2:25 PM45 °FPassing clouds.9 mph81%29.68 "HgN/A
1:55 PM45 °FSprinkles. Scattered clouds.8 mph81%29.68 "HgN/A
1:25 PM43 °FRain showers. Broken clouds.18 mph93%29.68 "Hg4 mi
12:55 PM46 °FSprinkles. Scattered clouds.6 mph82%29.68 "Hg6 mi
12:25 PM43 °FPassing clouds.3 mph93%29.68 "HgN/A
11:55 AM45 °FRain showers. Scattered clouds.13 mph87%29.68 "Hg4 mi
11:25 AM45 °FSprinkles. Scattered clouds.8 mph87%29.68 "HgN/A
10:55 AM45 °FSprinkles. Passing clouds.2 mph87%29.68 "HgN/A
10:25 AM45 °FSprinkles. Passing clouds.6 mph87%29.68 "Hg4 mi
9:55 AM45 °FPassing clouds.3 mph81%29.65 "HgN/A
9:25 AM41 °FPassing clouds.5 mph87%29.65 "HgN/A
8:55 AM43 °FSprinkles. Passing clouds.8 mph93%29.65 "Hg6 mi
7:55 AM45 °FSprinkles. Passing clouds.6 mph81%29.62 "HgN/A
6:55 AM45 °FSprinkles. Partly cloudy.13 mph87%29.62 "HgN/A
6:25 AM45 °FPassing clouds.12 mph81%29.62 "HgN/A
5:55 AM45 °FScattered showers. Passing clouds.13 mph87%29.62 "HgN/A
5:25 AM45 °FSprinkles. Passing clouds.16 mph81%29.62 "HgN/A
4:55 AM45 °FScattered showers. Passing clouds.9 mph87%29.62 "HgN/A
4:25 AM43 °FScattered showers. Passing clouds.8 mph93%29.62 "HgN/A
3:55 AM45 °FScattered showers. Passing clouds.9 mph87%29.65 "HgN/A
3:25 AM45 °FSprinkles. Passing clouds.12 mph87%29.65 "HgN/A
2:55 AM45 °FScattered showers. Passing clouds.10 mph87%29.65 "HgN/A
2:25 AM46 °FPassing clouds.9 mph87%29.65 "HgN/A
1:55 AM46 °FSprinkles. Passing clouds.6 mph93%29.65 "HgN/A
1:25 AM43 °FPassing clouds.6 mph100%29.65 "HgN/A
12:55 AM45 °FPassing clouds.6 mph93%29.65 "HgN/A
12:25 AM45 °FPassing clouds.9 mph100%29.65 "Hg5 mi
11:55 PM
Tue, Nov 24
45 °FPassing clouds.8 mph100%29.65 "Hg5 mi
10:55 PM45 °FPassing clouds.9 mph100%29.68 "HgN/A
10:25 PM45 °FSprinkles. Passing clouds.10 mph93%29.68 "Hg6 mi
9:55 PM45 °FSprinkles. Passing clouds.13 mph93%29.68 "Hg4 mi
9:25 PM43 °FSprinkles. Partly cloudy.13 mph100%29.68 "Hg4 mi
8:55 PM43 °FPassing clouds.14 mph100%29.68 "Hg4 mi
8:25 PM43 °FPartly cloudy.15 mph100%29.68 "Hg4 mi
7:55 PM43 °FPassing clouds.16 mph100%29.71 "Hg4 mi
7:25 PM43 °FPassing clouds.12 mph100%29.71 "Hg4 mi
6:55 PM43 °FDrizzle. Mostly cloudy.12 mph93%29.71 "Hg4 mi
6:25 PM41 °FPartly cloudy.14 mph100%29.71 "Hg5 mi
5:55 PM41 °FPassing clouds.15 mph100%29.74 "Hg5 mi
5:25 PM41 °FDrizzle. Mostly cloudy.13 mph100%29.74 "HgN/A
4:55 PM41 °FDrizzle. Mostly cloudy.16 mph100%29.74 "Hg6 mi
4:25 PM41 °FDrizzle. Mostly cloudy.18 mph93%29.74 "Hg6 mi
Weather by CustomWeather, © 2015

See weather overviewHow to use our weather pages